Regional Weather Roundup
Issued by NWS Sioux Falls, SD

Home | Current Version | Previous Version | Text Only | Print | Product List | Glossary Off
Versions: 1 2 3 4 5 6 7 8 9 10 11 12 13 14 15 16 17 18 19 20 21 22 23 24 25 26 27 28 29 30 31 32 33 34 35 36 37 38 39 40 41 42 43 44 45 46 47 48 49 50

000
ASUS43 KFSD 290910
RWRFSD

WEATHER ROUNDUP FOR SE SOUTH DAKOTA/SW MINNESOTA/NW IOWA
NATIONAL WEATHER SERVICE SIOUX FALLS SD
400 AM CDT SUN MAY 29 2016

NOTE: "FAIR" INDICATES FEW OR NO CLOUDS BELOW 12,000 FEET WITH NO
SIGNIFICANT WEATHER AND OR OBSTRUCTIONS TO VISIBILITY.


SDZ038>040-050-052>070-291000-
SOUTHEAST SOUTH DAKOTA

CITY           SKY/WX    TMP DP  RH WIND       PRES   REMARKS
BROOKINGS      CLOUDY    58  57  97 W5        29.94S
CHAMBERLAIN    CLOUDY    58  58  99 W3        29.98S
HURON          CLEAR     56  54  93 W7        29.95R
MADISON        PTSUNNY   57  57 100 W8        29.96R
MITCHELL       CLOUDY    61  58  90 W8        29.97R
SIOUX FALLS    MOCLDY    56  55  97 W3        29.96R
WINNER         FAIR      57  51  80 SW7       30.00S
YANKTON        CLOUDY    57  55  94 SW7       29.96F
$$

MNZ071-072-080-081-089-090-097-098-291000-
SOUTHWEST MINNESOTA

CITY           SKY/WX    TMP DP  RH WIND       PRES   REMARKS
FAIRMONT       CLEAR     59  55  88 W7        29.92R
JACKSON        PTCLDY    59  55  88 W10       29.94S FOG
LUVERNE        PTCLDY    55  54  94 W5        29.96R
MARSHALL       CLOUDY    58  55  90 W9        29.92R
MONTEVIDEO     PTCLDY    57  57 100 NW5       29.92R
PIPESTONE      FOG       55  55 100 CALM      29.95S VSB 1
REDWOOD FALLS  CLOUDY    61  57  87 W12       29.90R
TRACY          MOCLDY    60  57  91 W5        29.92S
WINDOM         CLEAR     59  57  94 W5        29.93R FOG
WORTHINGTON    MOCLDY    57  57 100 W10       29.95S FOG
$$

IAZ001>003-012>014-020>022-031-032-NEZ013-014-SDZ071-291000-
NORTHWEST IOWA

CITY           SKY/WX    TMP DP  RH WIND       PRES   REMARKS
CHEROKEE       CLEAR     56  56 100 CALM      29.97R
DENISON        CLEAR     55  55 100 S3        29.97R
ESTHERVILLE    CLEAR     58  57  97 W10       29.94R
LE MARS        CLEAR     57  57 100 W5        29.98R
ORANGE CITY    CLEAR     55  55 100 W3        29.97R
SHELDON        CLEAR     57  57 100 W5        29.95R
SIOUX CITY     CLEAR     56  54  93 W6        29.99R
SPENCER        PTCLDY    58  56  93 W8        29.95S
STORM LAKE     CLEAR     57  57 100 W7        29.97S
$$

ABBREVIATIONS USED IN REMARKS
   TC - TEMPERATURE IN CELSIUS
  WCI - WIND CHILL INDEX
   HX - HEAT INDEX
  VSB - VISIBILITY





USA.gov is the U.S. government's official web portal to all federal, state and local government web resources and services.